Walla Walla, WA

8:23 AM PDT on June 28, 2017 (GMT -0700)
Walla Walla Regional

Weather History for KALW - March, 2012

Change the Weather History Date:

Saturday, March 3, 2012

  Actual Average Record
Temperature  
Mean Temperature 51 °F 43 °F  
Max Temperature 57 °F 51 °F 67 °F (1987)
Min Temperature 45 °F 35 °F 13 °F (1989)
Degree Days  
Heating Degree Days 14 22  
Month to date heating degree days 68  
Since 1 July heating degree days 3845  
Cooling Degree Days 0 0  
Month to date cooling degree days 0  
Year to date cooling degree days 0  
Growing Degree Days 1 (Base 50)    
Moisture  
Dew Point 37 °F    
Average Humidity 61    
Maximum Humidity 71    
Minimum Humidity 45    
Precipitation  
Precipitation 0.00 in 0.07 in 0.45 in (1982)
Month to date precipitation 0.22  
Year to date precipitation 4.51  
Snow  
Snow 0.00 in 0.10 in 4.00 in (1951)
Month to date snowfall 0.2  
Year to date snowfall 5.2  
Since 1 July snowfall 10.9  
Snow Depth -    
Sea Level Pressure  
Sea Level Pressure 30.33 in    
Wind  
Wind Speed 16 mph (SSW)    
Max Wind Speed 24 mph    
Max Gust Speed 32 mph    
Visibility 10 miles    
Events      
T = Trace of Precipitation, MM = Missing Value Source: NWS Daily Summary

Daily Weather History Graph

Daily Weather History Graph

Search for Another Location

Airport or City:

Trip Planner

Search our weather history database for the weather conditions in past years. The results will help you decide how hot, cold, wet, or windy it might be!

Date:

Astronomy

Mar. 03, 2012 Rise Set
Actual Time 6:27 AM PST 5:43 PM PST
Civil Twilight 5:57 AM PST 6:13 PM PST
Nautical Twilight 5:22 AM PST 6:47 PM PST
Astronomical Twilight 4:48 AM PST 7:22 PM PST
Moon 12:44 PM PST (3/3) 3:21 AM PST (3/3)
Length of Visible Light 12h 15m
Length of Day
11h 15m
Waxing Gibbous, 76% of the Moon is Illuminated
Mar 3
Waxing Gibbous
Mar 8
Full
Mar 14
Last Quarter
Mar 22
New
Mar 30
First Quarter

Hourly Weather History & Observations

Time (PST) Temp. Windchill Dew Point Humidity Pressure Visibility Wind Dir Wind Speed Gust Speed Precip Events Conditions
12:53 AM 46.4 °F 39.8 °F 33.8 °F 62% 30.30 in 10.0 mi SSW 16.1 mph 23.0 mph N/A   Overcast
1:53 AM 46.0 °F 39.9 °F 34.0 °F 63% 30.33 in 10.0 mi SSW 13.8 mph - N/A   Overcast
2:53 AM 46.0 °F 39.9 °F 34.0 °F 63% 30.32 in 10.0 mi SSW 13.8 mph - N/A   Scattered Clouds
3:53 AM 45.0 °F 37.4 °F 34.0 °F 65% 30.31 in 10.0 mi SSW 18.4 mph - N/A   Mostly Cloudy
4:53 AM 46.0 °F 40.2 °F 35.1 °F 66% 30.32 in 10.0 mi SSW 12.7 mph - N/A   Mostly Cloudy
5:53 AM 45.0 °F 38.5 °F 35.1 °F 68% 30.33 in 10.0 mi SSW 13.8 mph - N/A   Clear
6:53 AM 45.0 °F 38.9 °F 36.0 °F 71% 30.33 in 10.0 mi SSW 12.7 mph - N/A   Clear
7:53 AM 46.9 °F - 37.0 °F 68% 30.34 in 10.0 mi SSW 12.7 mph - N/A   Clear
8:53 AM 48.9 °F - 37.9 °F 66% 30.33 in 10.0 mi SSW 17.3 mph - N/A   Partly Cloudy
9:53 AM 50.0 °F - 37.9 °F 63% 30.35 in 10.0 mi SW 18.4 mph 32.2 mph N/A   Clear
10:53 AM 52.0 °F - 39.0 °F 61% 30.35 in 10.0 mi SSW 16.1 mph - N/A   Clear
11:53 AM 54.0 °F - 39.9 °F 59% 30.33 in 10.0 mi SW 24.2 mph 29.9 mph N/A   Clear
12:53 PM 55.9 °F - 39.0 °F 53% 30.32 in 10.0 mi SW 18.4 mph - N/A   Scattered Clouds
1:53 PM 57.0 °F - 39.0 °F 51% 30.32 in 10.0 mi WSW 20.7 mph 25.3 mph N/A   Clear
2:53 PM 57.0 °F - 36.0 °F 45% 30.31 in 10.0 mi WSW 24.2 mph 32.2 mph N/A   Clear
3:53 PM 57.9 °F - 37.0 °F 46% 30.32 in 10.0 mi SW 17.3 mph 24.2 mph N/A   Clear
4:53 PM 55.9 °F - 37.0 °F 49% 30.32 in 10.0 mi WSW 20.7 mph 26.5 mph N/A   Clear
5:53 PM 53.1 °F - 37.0 °F 55% 30.33 in 10.0 mi SW 15.0 mph 25.3 mph N/A   Clear
6:53 PM 50.0 °F - 37.0 °F 61% 30.35 in 10.0 mi SSW 12.7 mph - N/A   Clear
7:53 PM 46.9 °F - 37.0 °F 68% 30.35 in 10.0 mi South 13.8 mph - N/A   Scattered Clouds
8:53 PM 48.0 °F - 37.0 °F 66% 30.35 in 10.0 mi South 17.3 mph - N/A   Overcast
9:53 PM 48.0 °F - 36.0 °F 63% 30.35 in 10.0 mi South 15.0 mph - N/A   Clear
10:53 PM 46.9 °F - 36.0 °F 66% 30.34 in 10.0 mi South 13.8 mph - N/A   Clear
11:53 PM 46.0 °F 40.2 °F 36.0 °F 68% 30.33 in 10.0 mi South 12.7 mph - N/A   Clear